Météo par heure à Alkhan-Kala

Ce jour, 19 Octobre, Lundi

Heure Température Précipitation Vent Pression Humidité
00:00 +19°C° 0 mm 1 m/s 747 mmHg 53%
01:00 +18°C° 0 mm 1 m/s 747 mmHg 53%
02:00 +18°C° 0 mm 1 m/s 748 mmHg 53%
03:00 +17°C° 0 mm 2 m/s 748 mmHg 53%
04:00 +17°C° 0 mm 2 m/s 748 mmHg 54%
05:00 +16°C° 0 mm 2 m/s 748 mmHg 55%
06:00 +16°C° 0 mm 2 m/s 748 mmHg 56%
07:00 +18°C° 0 mm 2 m/s 748 mmHg 50%
08:00 +20°C° 0 mm 2 m/s 748 mmHg 44%
09:00 +23°C° 0 mm 2 m/s 748 mmHg 40%
10:00 +25°C° 0 mm 2 m/s 748 mmHg 38%
11:00 +26°C° 0 mm 2 m/s 748 mmHg 36%
12:00 +27°C° 0 mm 2 m/s 747 mmHg 35%
13:00 +27°C° 0 mm 2 m/s 747 mmHg 34%
14:00 +27°C° 0 mm 2 m/s 747 mmHg 34%
15:00 +28°C° 0 mm 2 m/s 746 mmHg 33%
16:00 +26°C° 0 mm 2 m/s 746 mmHg 37%
17:00 +24°C° 0 mm 1 m/s 746 mmHg 41%
18:00 +22°C° 0 mm 1 m/s 746 mmHg 44%
19:00 +21°C° 0 mm 1 m/s 747 mmHg 46%
20:00 +21°C° 0 mm 1 m/s 747 mmHg 48%
21:00 +20°C° 0 mm 1 m/s 747 mmHg 49%
22:00 +19°C° 0 mm 2 m/s 748 mmHg 50%
23:00 +19°C° 0 mm 2 m/s 748 mmHg 51%

Demain, 20 Octobre, Mardi

Heure Température Précipitation Vent Pression Humidité
00:00 +19°C° 0 mm 3 m/s 748 mmHg 53%
01:00 +18°C° 0 mm 3 m/s 749 mmHg 61%
02:00 +18°C° 0 mm 3 m/s 749 mmHg 70%
03:00 +18°C° 0 mm 3 m/s 750 mmHg 79%
04:00 +17°C° 0.3 mm 3 m/s 750 mmHg 76%
05:00 +17°C° 0.3 mm 3 m/s 751 mmHg 73%
06:00 +16°C° 0.3 mm 3 m/s 751 mmHg 70%
07:00 +16°C° 0 mm 3 m/s 752 mmHg 67%
08:00 +16°C° 0 mm 3 m/s 752 mmHg 63%
09:00 +16°C° 0 mm 3 m/s 752 mmHg 60%
10:00 +17°C° 0 mm 3 m/s 752 mmHg 57%
11:00 +18°C° 0 mm 3 m/s 752 mmHg 54%
12:00 +18°C° 0 mm 2 m/s 752 mmHg 51%
13:00 +18°C° 0 mm 2 m/s 752 mmHg 50%
14:00 +18°C° 0 mm 2 m/s 751 mmHg 48%
15:00 +19°C° 0 mm 2 m/s 751 mmHg 47%
16:00 +18°C° 0 mm 2 m/s 751 mmHg 50%
17:00 +17°C° 0 mm 2 m/s 751 mmHg 53%
18:00 +16°C° 0 mm 2 m/s 752 mmHg 56%
19:00 +15°C° 1.8 mm 2 m/s 752 mmHg 66%
20:00 +14°C° 1.8 mm 1 m/s 752 mmHg 76%
21:00 +13°C° 1.8 mm 1 m/s 753 mmHg 86%
22:00 +13°C° 0.7 mm 1 m/s 753 mmHg 85%
23:00 +12°C° 0.7 mm 0 m/s 753 mmHg 85%

Après-demain, 21 Octobre, Mercredi

Heure Température Précipitation Vent Pression Humidité
00:00 +13°C° 0.7 mm 0 m/s 753 mmHg 84%
01:00 +12°C° 0.3 mm 0 m/s 753 mmHg 85%
02:00 +12°C° 0.3 mm 0 m/s 754 mmHg 85%
03:00 +13°C° 0.3 mm 1 m/s 754 mmHg 85%
04:00 +13°C° 0.1 mm 1 m/s 754 mmHg 84%
05:00 +13°C° 0.1 mm 1 m/s 754 mmHg 83%
06:00 +13°C° 0.1 mm 1 m/s 754 mmHg 82%
07:00 +14°C° 0 mm 1 m/s 755 mmHg 80%
08:00 +14°C° 0 mm 1 m/s 755 mmHg 77%
09:00 +14°C° 0 mm 1 m/s 755 mmHg 74%
10:00 +15°C° 0 mm 1 m/s 755 mmHg 69%
11:00 +16°C° 0 mm 1 m/s 755 mmHg 65%
12:00 +16°C° 0 mm 1 m/s 755 mmHg 60%
13:00 +18°C° 0 mm 1 m/s 755 mmHg 59%
14:00 +18°C° 0 mm 1 m/s 755 mmHg 57%
15:00 +16°C° 0 mm 0 m/s 755 mmHg 55%
16:00 +16°C° 0 mm 1 m/s 755 mmHg 59%
17:00 +15°C° 0 mm 1 m/s 755 mmHg 63%
18:00 +14°C° 0 mm 1 m/s 755 mmHg 67%
19:00 +14°C° 0 mm 1 m/s 755 mmHg 69%
20:00 +13°C° 0 mm 1 m/s 755 mmHg 71%
21:00 +12°C° 0 mm 0 m/s 755 mmHg 74%
22:00 +12°C° 0 mm 1 m/s 755 mmHg 73%
23:00 +12°C° 0 mm 1 m/s 754 mmHg 73%

22 Octobre, Jeudi

Heure Température Précipitation Vent Pression Humidité
00:00 +12°C° 0 mm 1 m/s 754 mmHg 73%
01:00 +12°C° 0 mm 1 m/s 754 mmHg 74%
02:00 +10°C° 0 mm 0 m/s 754 mmHg 75%
03:00 +10°C° 0 mm 0 m/s 753 mmHg 77%
04:00 +10°C° 0 mm 0 m/s 753 mmHg 77%
05:00 +10°C° 0 mm 0 m/s 753 mmHg 77%
06:00 +10°C° 0 mm 0 m/s 754 mmHg 77%
07:00 +12°C° 0 mm 1 m/s 754 mmHg 73%
08:00 +13°C° 0 mm 1 m/s 754 mmHg 69%
09:00 +15°C° 0 mm 1 m/s 754 mmHg 65%
10:00 +16°C° 0 mm 1 m/s 753 mmHg 60%
11:00 +18°C° 0 mm 1 m/s 753 mmHg 54%
12:00 +19°C° 0 mm 2 m/s 753 mmHg 49%
13:00 +20°C° 0 mm 1 m/s 752 mmHg 48%
14:00 +20°C° 0 mm 1 m/s 752 mmHg 47%
15:00 +20°C° 0 mm 1 m/s 752 mmHg 45%
16:00 +19°C° 0 mm 1 m/s 752 mmHg 49%
17:00 +18°C° 0 mm 1 m/s 752 mmHg 54%
18:00 +15°C° 0 mm 1 m/s 753 mmHg 58%
19:00 +15°C° 0 mm 1 m/s 753 mmHg 61%
20:00 +14°C° 0 mm 1 m/s 753 mmHg 64%
21:00 +13°C° 0 mm 0 m/s 753 mmHg 67%
22:00 +12°C° 0 mm 0 m/s 753 mmHg 69%
23:00 +12°C° 0 mm 0 m/s 753 mmHg 71%

23 Octobre, Vendredi

Heure Température Précipitation Vent Pression Humidité
00:00 +12°C° 0 mm 0 m/s 753 mmHg 73%
01:00 +12°C° 0 mm 0 m/s 753 mmHg 72%
02:00 +11°C° 0 mm 0 m/s 753 mmHg 71%
03:00 +12°C° 0 mm 1 m/s 752 mmHg 70%
04:00 +12°C° 0 mm 1 m/s 753 mmHg 70%
05:00 +12°C° 0 mm 1 m/s 753 mmHg 69%
06:00 +12°C° 0 mm 1 m/s 753 mmHg 68%
07:00 +13°C° 0 mm 0 m/s 753 mmHg 62%
08:00 +14°C° 0 mm 0 m/s 753 mmHg 55%
09:00 +16°C° 0 mm 0 m/s 753 mmHg 48%
10:00 +18°C° 0 mm 0 m/s 753 mmHg 44%
11:00 +21°C° 0 mm 1 m/s 753 mmHg 39%
12:00 +23°C° 0 mm 1 m/s 753 mmHg 35%
13:00 +23°C° 0 mm 1 m/s 752 mmHg 34%
14:00 +23°C° 0 mm 1 m/s 752 mmHg 33%
15:00 +24°C° 0 mm 1 m/s 752 mmHg 32%
16:00 +22°C° 0 mm 1 m/s 752 mmHg 36%
17:00 +20°C° 0 mm 1 m/s 752 mmHg 40%
18:00 +19°C° 0 mm 1 m/s 752 mmHg 44%
19:00 +18°C° 0 mm 1 m/s 752 mmHg 46%
20:00 +18°C° 0 mm 1 m/s 752 mmHg 48%
21:00 +16°C° 0 mm 1 m/s 752 mmHg 49%
22:00 +16°C° 0 mm 1 m/s 752 mmHg 50%
23:00 +16°C° 0 mm 1 m/s 751 mmHg 50%

24 Octobre, Samedi

Heure Température Précipitation Vent Pression Humidité
00:00 +16°C° 0 mm 1 m/s 751 mmHg 50%
01:00 +15°C° 0 mm 1 m/s 751 mmHg 50%
02:00 +15°C° 0 mm 1 m/s 750 mmHg 51%
03:00 +15°C° 0 mm 1 m/s 750 mmHg 51%
04:00 +15°C° 0 mm 1 m/s 750 mmHg 51%
05:00 +15°C° 0 mm 1 m/s 750 mmHg 52%
06:00 +14°C° 0 mm 1 m/s 750 mmHg 52%
07:00 +16°C° 0 mm 1 m/s 749 mmHg 48%
08:00 +19°C° 0 mm 1 m/s 749 mmHg 44%
09:00 +21°C° 0 mm 1 m/s 749 mmHg 40%
10:00 +22°C° 0 mm 1 m/s 749 mmHg 37%
11:00 +24°C° 0 mm 1 m/s 748 mmHg 33%
12:00 +25°C° 0 mm 2 m/s 748 mmHg 29%
13:00 +26°C° 0 mm 1 m/s 748 mmHg 29%
14:00 +26°C° 0 mm 1 m/s 748 mmHg 30%
15:00 +26°C° 0 mm 1 m/s 747 mmHg 30%
16:00 +24°C° 0 mm 1 m/s 748 mmHg 34%
17:00 +22°C° 0 mm 1 m/s 748 mmHg 38%
18:00 +21°C° 0 mm 1 m/s 748 mmHg 42%
19:00 +20°C° 0 mm 1 m/s 748 mmHg 43%
20:00 +20°C° 0 mm 1 m/s 748 mmHg 45%
21:00 +19°C° 0 mm 1 m/s 748 mmHg 46%
22:00 +19°C° 0 mm 1 m/s 748 mmHg 47%
23:00 +19°C° 0 mm 1 m/s 748 mmHg 47%

25 Octobre, Dimanche

Heure Température Précipitation Vent Pression Humidité
00:00 +18°C° 0 mm 1 m/s 748 mmHg 48%
01:00 +18°C° 0 mm 1 m/s 748 mmHg 48%
02:00 +16°C° 0 mm 1 m/s 748 mmHg 49%
03:00 +16°C° 0 mm 1 m/s 748 mmHg 50%
04:00 +16°C° 0 mm 1 m/s 748 mmHg 50%
05:00 +15°C° 0 mm 1 m/s 748 mmHg 51%
06:00 +15°C° 0 mm 1 m/s 748 mmHg 51%
07:00 +18°C° 0 mm 1 m/s 748 mmHg 47%
08:00 +17°C° 0 mm 0 m/s 748 mmHg 43%
09:00 +19°C° 0 mm 0 m/s 748 mmHg 39%
10:00 +22°C° 0 mm 1 m/s 748 mmHg 36%
11:00 +23°C° 0 mm 1 m/s 747 mmHg 33%
12:00 +25°C° 0 mm 2 m/s 747 mmHg 30%
13:00 +25°C° 0 mm 2 m/s 747 mmHg 29%
14:00 +25°C° 0 mm 2 m/s 747 mmHg 28%
15:00 +25°C° 0 mm 2 m/s 746 mmHg 27%
16:00 +24°C° 0 mm 1 m/s 747 mmHg 31%
17:00 +22°C° 0 mm 1 m/s 747 mmHg 34%
18:00 +20°C° 0 mm 1 m/s 747 mmHg 37%
19:00 +20°C° 0 mm 1 m/s 747 mmHg 39%
20:00 +19°C° 0 mm 1 m/s 747 mmHg 42%
21:00 +18°C° 0 mm 1 m/s 747 mmHg 44%
22:00 +18°C° 0 mm 1 m/s 747 mmHg 45%
23:00 +18°C° 0 mm 1 m/s 747 mmHg 47%
Voir plus

Nous avons besoin de votre consentement

Meteoprog et ses fournisseurs de services peuvent stocker et accéder à des données personnelles telles que des cookies, des identifiants d'appareils ou d'autres technologies similaires sur votre appareil et traiter ces données pour personnaliser le contenu et les publicités, ainsi que pour fournir des fonctionnalités de médias sociaux et analyser le trafic.

  • Stocker et/ou accéder à des informations sur votre appareil

    Des cookies, des identifiants d'appareils ou d'autres informations peuvent être stockés ou accessibles sur votre appareil aux fins indiquées ci-dessus.

  • Annonces et contenus personnalisés, mesure des annonces et des contenus, connaissance de l'audience et développement de produits

    Les annonces et le contenu peuvent être personnalisés en fonction d'un profil. D'autres données peuvent être ajoutées pour mieux personnaliser les annonces et le contenu. Les performances des publicités et du contenu peuvent être mesurées. Il est possible d'obtenir des informations sur le public qui a vu les publicités et le contenu. Ces données peuvent être utilisées pour développer ou améliorer l'expérience de l'utilisateur, les systèmes et les logiciels.

En cliquant sur "J'accepte", vous autorisez l'utilisation de cookies, des identifiants d'appareils, des balises web ou d'autres technologies similaires. Vos paramètres peuvent être modifiés dans le navigateur de votre appareil.

Dans certains cas, des intérêts légitimes peuvent être invoqués plutôt qu'un consentement. Vous pouvez en savoir plus à ce sujet dans notre Politique de confidentialité et de cookies.